Time,TemperatureF,DewpointF,PressureIn,WindDirection,WindDirectionDegrees,WindSpeedMPH,WindSpeedGustMPH,Humidity,HourlyPrecipIn,Conditions,Clouds,dailyrainin,SoftwareType,DateUTC
2013-07-08 00:22:00,78.0,73.0,-100.00,North,5,0.0,3.0,84,-99.99,,,-99.99,,2013-07-08 05:22:00,
2013-07-08 00:43:00,78.0,74.0,-100.00,North,5,1.0,4.0,86,-99.99,,,-99.99,,2013-07-08 05:43:00,
2013-07-08 00:53:00,78.0,74.0,-100.00,North,5,1.0,4.0,86,-99.99,,,-99.99,,2013-07-08 05:53:00,
2013-07-08 01:12:00,78.0,73.0,-100.00,North,5,1.0,4.0,86,-99.99,,,-99.99,,2013-07-08 06:12:00,
2013-07-08 01:22:00,78.0,73.0,-100.00,North,5,1.0,4.0,86,-99.99,,,-99.99,,2013-07-08 06:22:00,
2013-07-08 01:43:00,77.0,73.0,-100.00,North,5,1.0,4.0,88,-99.99,,,-99.99,,2013-07-08 06:43:00,
2013-07-08 01:53:00,77.0,73.0,-100.00,North,5,1.0,4.0,88,-99.99,,,-99.99,,2013-07-08 06:53:00,
2013-07-08 02:12:00,77.0,73.0,-100.00,North,5,0.0,7.0,89,-99.99,,,-99.99,,2013-07-08 07:12:00,
2013-07-08 02:22:00,77.0,73.0,-100.00,North,5,0.0,7.0,89,-99.99,,,-99.99,,2013-07-08 07:22:00,
2013-07-08 02:44:00,77.0,74.0,-100.00,North,5,2.0,6.0,88,-99.99,,,-99.99,,2013-07-08 07:44:00,
2013-07-08 02:53:00,77.0,74.0,-100.00,North,5,2.0,6.0,88,-99.99,,,-99.99,,2013-07-08 07:53:00,
2013-07-08 03:22:00,78.0,72.0,-100.00,North,5,1.0,8.0,83,-99.99,,,-99.99,,2013-07-08 08:22:00,
2013-07-08 03:42:00,78.0,72.0,-100.00,North,5,2.0,7.0,81,-99.99,,,-99.99,,2013-07-08 08:42:00,
2013-07-08 03:53:00,78.0,72.0,-100.00,North,5,2.0,7.0,81,-99.99,,,-99.99,,2013-07-08 08:53:00,
2013-07-08 04:11:00,79.0,72.0,-100.00,North,5,5.0,8.0,81,-99.99,,,-99.99,,2013-07-08 09:11:00,
2013-07-08 04:22:00,79.0,72.0,-100.00,North,5,5.0,8.0,81,-99.99,,,-99.99,,2013-07-08 09:22:00,
2013-07-08 04:43:00,78.0,72.0,-100.00,North,5,3.0,11.0,82,-99.99,,,-99.99,,2013-07-08 09:43:00,
2013-07-08 04:53:00,78.0,72.0,-100.00,North,5,3.0,11.0,82,-99.99,,,-99.99,,2013-07-08 09:53:00,
2013-07-08 05:11:00,73.0,72.0,-100.00,North,5,1.0,5.0,98,-99.99,,,-99.99,,2013-07-08 10:11:00,
2013-07-08 05:22:00,73.0,72.0,-100.00,North,5,1.0,5.0,98,-99.99,,,-99.99,,2013-07-08 10:22:00,
2013-07-08 05:43:00,72.0,71.0,-100.00,North,5,1.0,4.0,99,-99.99,,,-99.99,,2013-07-08 10:43:00,
2013-07-08 05:53:00,72.0,71.0,-100.00,North,5,1.0,4.0,99,-99.99,,,-99.99,,2013-07-08 10:53:00,
2013-07-08 06:11:00,71.0,71.0,-100.00,North,5,1.0,6.0,99,-99.99,,,-99.99,,2013-07-08 11:11:00,
2013-07-08 06:23:00,71.0,71.0,-100.00,North,5,1.0,6.0,99,-99.99,,,-99.99,,2013-07-08 11:23:00,
2013-07-08 06:33:00,71.0,71.0,-100.00,North,5,3.0,6.0,99,-99.99,,,-99.99,,2013-07-08 11:33:00,
2013-07-08 06:43:00,71.0,71.0,-100.00,North,5,1.0,5.0,99,-99.99,,,-99.99,,2013-07-08 11:43:00,
2013-07-08 06:53:00,71.0,71.0,-100.00,North,5,1.0,5.0,99,-99.99,,,-99.99,,2013-07-08 11:53:00,
2013-07-08 07:11:00,71.0,71.0,-100.00,North,5,1.0,4.0,99,-99.99,,,-99.99,,2013-07-08 12:11:00,
2013-07-08 07:22:00,71.0,71.0,-100.00,North,5,1.0,4.0,99,-99.99,,,-99.99,,2013-07-08 12:22:00,
2013-07-08 07:53:00,71.0,71.0,-100.00,North,5,0.0,5.0,99,-99.99,,,-99.99,,2013-07-08 12:53:00,
2013-07-08 08:22:00,72.0,72.0,-100.00,North,0,1.0,8.0,99,-99.99,,,-99.99,,2013-07-08 13:22:00,
2013-07-08 08:53:00,73.0,73.0,-100.00,North,0,1.0,9.0,99,-99.99,,,-99.99,,2013-07-08 13:53:00,
2013-07-08 09:12:00,74.0,73.0,-100.00,North,0,1.0,6.0,99,-99.99,,,-99.99,,2013-07-08 14:12:00,
2013-07-08 09:22:00,74.0,73.0,-100.00,North,0,1.0,6.0,99,-99.99,,,-99.99,,2013-07-08 14:22:00,
2013-07-08 09:43:00,75.0,74.0,-100.00,North,0,2.0,6.0,96,-99.99,,,-99.99,,2013-07-08 14:43:00,
2013-07-08 09:53:00,75.0,74.0,-100.00,North,0,2.0,6.0,96,-99.99,,,-99.99,,2013-07-08 14:53:00,
2013-07-08 10:22:00,77.0,74.0,-100.00,North,0,1.0,6.0,90,-99.99,,,-99.99,,2013-07-08 15:22:00,
2013-07-08 10:53:00,79.0,74.0,-100.00,North,0,1.0,6.0,83,-99.99,,,-99.99,,2013-07-08 15:53:00,
2013-07-08 11:22:00,82.0,74.0,-100.00,North,0,2.0,7.0,77,-99.99,,,-99.99,,2013-07-08 16:22:00,
2013-07-08 11:57:00,83.0,73.0,-100.00,North,5,6.0,9.0,72,-99.99,,,-99.99,,2013-07-08 16:57:00,
2013-07-08 12:55:00,86.0,74.0,-100.00,North,5,5.0,10.0,67,-99.99,,,-99.99,,2013-07-08 17:55:00,
2013-07-08 14:00:00,87.0,73.0,-100.00,North,5,7.0,19.0,63,-99.99,,,-99.99,,2013-07-08 19:00:00,
2013-07-08 14:32:00,88.0,73.0,-100.00,North,5,6.0,13.0,63,-99.99,,,-99.99,,2013-07-08 19:32:00,
2013-07-08 15:06:00,88.0,74.0,-100.00,North,5,6.0,14.0,63,-99.99,,,-99.99,,2013-07-08 20:06:00,
2013-07-08 15:30:00,88.0,74.0,-100.00,North,5,5.0,14.0,63,-99.99,,,-99.99,,2013-07-08 20:30:00,
2013-07-08 16:32:00,89.0,74.0,-100.00,North,5,5.0,16.0,62,-99.99,,,-99.99,,2013-07-08 21:32:00,
2013-07-08 17:09:00,89.0,74.0,-100.00,North,5,8.0,15.0,63,-99.99,,,-99.99,,2013-07-08 22:09:00,
2013-07-08 17:22:00,89.0,75.0,-100.00,North,5,4.0,11.0,63,-99.99,,,-99.99,,2013-07-08 22:22:00,
2013-07-08 18:08:00,88.0,74.0,-100.00,North,5,3.0,14.0,64,-99.99,,,-99.99,,2013-07-08 23:08:00,
2013-07-08 18:20:00,89.0,75.0,-100.00,North,5,4.0,8.0,64,-99.99,,,-99.99,,2013-07-08 23:20:00,
2013-07-08 18:30:00,89.0,75.0,-100.00,North,5,4.0,8.0,64,-99.99,,,-99.99,,2013-07-08 23:30:00,
2013-07-08 19:09:00,88.0,74.0,-100.00,North,5,1.0,14.0,64,-99.99,,,-99.99,,2013-07-09 00:09:00,
2013-07-08 19:22:00,87.0,74.0,-100.00,North,5,6.0,13.0,65,-99.99,,,-99.99,,2013-07-09 00:22:00,
2013-07-08 19:30:00,87.0,74.0,-100.00,North,5,6.0,13.0,65,-99.99,,,-99.99,,2013-07-09 00:30:00,
2013-07-08 19:42:00,87.0,74.0,-100.00,North,5,6.0,13.0,65,-99.99,,,-99.99,,2013-07-09 00:42:00,
2013-07-08 20:08:00,86.0,75.0,-100.00,North,5,4.0,9.0,70,-99.99,,,-99.99,,2013-07-09 01:08:00,
2013-07-08 20:15:00,84.0,76.0,-100.00,North,5,1.0,5.0,77,-99.99,,,-99.99,,2013-07-09 01:15:00,
2013-07-08 20:33:00,85.0,75.0,-100.00,North,5,4.0,8.0,72,-99.99,,,-99.99,,2013-07-09 01:33:00,
2013-07-08 22:09:00,82.0,77.0,-100.00,North,5,1.0,4.0,86,-99.99,,,-99.99,,2013-07-09 03:09:00,
2013-07-08 22:22:00,81.0,77.0,-100.00,North,5,1.0,6.0,88,-99.99,,,-99.99,,2013-07-09 03:22:00,
2013-07-08 23:02:00,80.0,77.0,-100.00,North,5,1.0,4.0,91,-99.99,,,-99.99,,2013-07-09 04:02:00,
2013-07-08 23:11:00,79.0,77.0,-100.00,North,5,2.0,5.0,92,-99.99,,,-99.99,,2013-07-09 04:11:00,
2013-07-08 23:22:00,79.0,77.0,-100.00,North,5,2.0,5.0,92,-99.99,,,-99.99,,2013-07-09 04:22:00,
2013-07-08 23:34:00,79.0,76.0,-100.00,North,5,0.0,4.0,92,-99.99,,,-99.99,,2013-07-09 04:34:00,
2013-07-08 23:42:00,79.0,76.0,-100.00,North,5,1.0,3.0,92,-99.99,,,-99.99,,2013-07-09 04:42:00,
2013-07-08 23:53:00,79.0,76.0,-100.00,North,5,1.0,3.0,92,-99.99,,,-99.99,,2013-07-09 04:53:00,